Location: Allaines
(49.9632°N, 2.9458°E)
Time: 22:20:59
(UTC+00:00)

X-37B - Pass Details

Date: 24 June 2021
Orbit: 383 x 392 km, 45.0° (Epoch: 01 July)

Event Time Altitude Azimuth Distance (km) Brightness Sun altitude
Rises 21:07:21 0° 228° (SW) 2,250 4.4 -8.2°
Reaches altitude 10° 21:09:43 10° 211° (SSW) 1,399 3.2 -8.4°
Maximum altitude 21:12:09 20° 161° (SSE) 941 1.9 -8.7°
Drops below altitude 10° 21:14:34 10° 110° (ESE) 1,402 2.9 -8.9°
Enters shadow 21:15:02 - 105° (ESE) 1,556 3.2 -8.9°
